Time,TemperatureF,DewpointF,PressureIn,WindDirection,WindDirectionDegrees,WindSpeedMPH,WindSpeedGustMPH,Humidity,HourlyPrecipIn,Conditions,Clouds,dailyrainin,SolarRadiationWatts/m^2,SoftwareType,DateUTC
2013-05-01 00:00:00,64.2,-99.9,19.99,ENE,77,4.0,7.0,255,0.00,,,0.00,0,Wunderground v.1.15,2013-05-01 04:00:00,
2013-05-01 00:05:00,64.1,-99.9,19.99,ESE,103,3.0,7.0,255,0.00,,,0.00,0,Wunderground v.1.15,2013-05-01 04:05:00,
2013-05-01 00:15:00,64.0,-99.9,19.99,East,79,3.0,7.0,255,0.00,,,0.00,0,Wunderground v.1.15,2013-05-01 04:15:00,
2013-05-01 00:25:00,63.9,-99.9,19.99,NE,53,2.0,7.0,255,0.00,,,0.00,0,Wunderground v.1.15,2013-05-01 04:25:00,
2013-05-01 00:30:00,63.7,-99.9,19.99,NE,54,1.0,7.0,255,0.00,,,0.00,0,Wunderground v.1.15,2013-05-01 04:30:00,
2013-05-01 00:40:00,63.5,-99.9,19.98,NE,44,4.0,7.0,255,0.00,,,0.00,0,Wunderground v.1.15,2013-05-01 04:40:00,
2013-05-01 00:50:00,63.4,-99.9,19.98,ENE,64,2.0,7.0,255,0.00,,,0.00,0,Wunderground v.1.15,2013-05-01 04:50:00,
2013-05-01 01:01:00,63.3,-99.9,19.98,NNE,29,3.0,8.0,255,0.00,,,0.00,0,Wunderground v.1.15,2013-05-01 05:01:00,
2013-05-01 01:06:00,63.3,-99.9,19.99,NNE,30,4.0,8.0,255,0.00,,,0.00,0,Wunderground v.1.15,2013-05-01 05:06:00,
2013-05-01 01:16:00,63.1,-99.9,19.99,East,99,6.0,8.0,255,0.00,,,0.00,0,Wunderground v.1.15,2013-05-01 05:16:00,
2013-05-01 01:21:00,63.0,-99.9,19.98,ENE,71,1.0,8.0,255,0.00,,,0.00,0,Wunderground v.1.15,2013-05-01 05:21:00,
2013-05-01 01:31:00,63.0,-99.9,19.99,ENE,77,5.0,8.0,255,0.00,,,0.00,0,Wunderground v.1.15,2013-05-01 05:31:00,
2013-05-01 01:41:00,63.1,-99.9,19.99,ENE,58,5.0,8.0,255,0.00,,,0.00,0,Wunderground v.1.15,2013-05-01 05:41:00,
2013-05-01 01:51:00,63.1,-99.9,19.99,ENE,62,4.0,8.0,255,0.00,,,0.00,0,Wunderground v.1.15,2013-05-01 05:51:00,
2013-05-01 02:00:00,63.0,-99.9,19.99,ENE,66,4.0,10.0,255,0.00,,,0.00,0,Wunderground v.1.15,2013-05-01 06:00:00,
2013-05-01 02:06:00,62.9,-99.9,19.98,NE,38,7.0,10.0,255,0.00,,,0.00,0,Wunderground v.1.15,2013-05-01 06:06:00,
2013-05-01 02:15:00,62.7,-99.9,19.98,ENE,64,3.0,10.0,255,0.00,,,0.00,0,Wunderground v.1.15,2013-05-01 06:15:00,
2013-05-01 02:25:00,62.6,-99.9,19.99,NE,46,3.0,10.0,255,0.00,,,0.00,0,Wunderground v.1.15,2013-05-01 06:25:00,
2013-05-01 02:35:00,62.5,-99.9,19.99,NE,47,4.0,10.0,255,0.00,,,0.00,0,Wunderground v.1.15,2013-05-01 06:35:00,
2013-05-01 02:45:00,62.4,-99.9,19.99,NE,49,3.0,10.0,255,0.00,,,0.00,0,Wunderground v.1.15,2013-05-01 06:45:00,
2013-05-01 02:50:00,62.3,-99.9,19.99,NE,40,3.0,10.0,255,0.00,,,0.00,0,Wunderground v.1.15,2013-05-01 06:50:00,
2013-05-01 03:00:00,62.3,-99.9,19.99,NE,43,1.0,7.0,255,0.00,,,0.00,0,Wunderground v.1.15,2013-05-01 07:00:00,
2013-05-01 03:10:00,62.2,-99.9,19.99,NE,56,1.0,7.0,255,0.00,,,0.00,0,Wunderground v.1.15,2013-05-01 07:10:00,
2013-05-01 03:20:00,62.0,-99.9,19.98,NE,54,4.0,7.0,255,0.00,,,0.00,0,Wunderground v.1.15,2013-05-01 07:20:00,
2013-05-01 03:25:00,62.0,-99.9,19.99,NE,49,3.0,7.0,255,0.00,,,0.00,0,Wunderground v.1.15,2013-05-01 07:25:00,
2013-05-01 03:35:00,61.9,-99.9,19.98,NE,45,3.0,7.0,255,0.00,,,0.00,0,Wunderground v.1.15,2013-05-01 07:35:00,
2013-05-01 03:45:00,61.8,-99.9,19.98,NE,43,5.0,7.0,255,0.00,,,0.00,0,Wunderground v.1.15,2013-05-01 07:45:00,
2013-05-01 03:50:00,61.7,-99.9,19.99,NE,41,3.0,7.0,255,0.00,,,0.00,0,Wunderground v.1.15,2013-05-01 07:50:00,
2013-05-01 04:01:00,61.7,-99.9,19.99,NE,40,4.0,8.0,255,0.00,,,0.00,0,Wunderground v.1.15,2013-05-01 08:01:00,
2013-05-01 04:06:00,61.7,-99.9,19.99,NE,37,7.0,8.0,255,0.00,,,0.00,0,Wunderground v.1.15,2013-05-01 08:06:00,
2013-05-01 04:16:00,61.5,-99.9,19.99,NE,37,1.0,8.0,255,0.00,,,0.00,0,Wunderground v.1.15,2013-05-01 08:16:00,
2013-05-01 04:26:00,61.4,-99.9,19.99,NE,47,6.0,8.0,255,0.00,,,0.00,0,Wunderground v.1.15,2013-05-01 08:26:00,
2013-05-01 04:36:00,61.4,-99.9,19.99,NE,46,5.0,8.0,255,0.00,,,0.00,0,Wunderground v.1.15,2013-05-01 08:36:00,
2013-05-01 04:46:00,61.3,-99.9,19.99,NE,42,6.0,8.0,255,0.00,,,0.00,0,Wunderground v.1.15,2013-05-01 08:46:00,
2013-05-01 05:00:00,61.1,-99.9,19.99,NE,48,6.0,9.0,255,0.00,,,0.00,0,Wunderground v.1.15,2013-05-01 09:00:00,
2013-05-01 05:06:00,61.1,-99.9,19.99,NNE,32,6.0,9.0,255,0.00,,,0.00,0,Wunderground v.1.15,2013-05-01 09:06:00,
2013-05-01 05:15:00,60.8,-99.9,19.99,NE,56,4.0,9.0,255,0.00,,,0.00,0,Wunderground v.1.15,2013-05-01 09:15:00,
2013-05-01 05:25:00,60.5,-99.9,19.98,NE,46,1.0,9.0,255,0.00,,,0.00,0,Wunderground v.1.15,2013-05-01 09:25:00,
2013-05-01 05:35:00,60.4,-99.9,19.99,NE,34,3.0,9.0,255,0.00,,,0.00,0,Wunderground v.1.15,2013-05-01 09:35:00,
2013-05-01 05:45:00,60.3,-99.9,19.99,NE,50,4.0,9.0,255,0.00,,,0.00,0,Wunderground v.1.15,2013-05-01 09:45:00,
2013-05-01 05:50:00,60.3,-99.9,19.98,NE,36,8.0,9.0,255,0.00,,,0.00,0,Wunderground v.1.15,2013-05-01 09:50:00,
2013-05-01 06:00:00,60.2,-99.9,19.99,ENE,64,6.0,12.0,255,0.00,,,0.00,0,Wunderground v.1.15,2013-05-01 10:00:00,
2013-05-01 06:05:00,60.1,-99.9,19.99,East,84,7.0,12.0,255,0.00,,,0.00,0,Wunderground v.1.15,2013-05-01 10:05:00,
2013-05-01 06:15:00,60.1,-99.9,19.98,NE,50,8.0,12.0,255,0.00,,,0.00,0,Wunderground v.1.15,2013-05-01 10:15:00,
2013-05-01 06:25:00,59.9,-99.9,19.98,East,84,3.0,12.0,255,0.00,,,0.00,0,Wunderground v.1.15,2013-05-01 10:25:00,
2013-05-01 06:35:00,59.8,-99.9,19.98,NNE,28,3.0,12.0,255,0.00,,,0.00,0,Wunderground v.1.15,2013-05-01 10:35:00,
2013-05-01 06:45:00,59.9,-99.9,19.99,ENE,73,9.0,12.0,255,0.00,,,0.00,0,Wunderground v.1.15,2013-05-01 10:45:00,
2013-05-01 06:50:00,59.9,-99.9,19.99,NE,39,6.0,12.0,255,0.00,,,0.00,0,Wunderground v.1.15,2013-05-01 10:50:00,
2013-05-01 07:01:00,60.0,-99.9,19.98,NNE,32,10.0,15.0,255,0.00,,,0.00,0,Wunderground v.1.15,2013-05-01 11:01:00,
2013-05-01 07:11:00,60.2,-99.9,19.99,ENE,71,4.0,15.0,255,0.00,,,0.00,0,Wunderground v.1.15,2013-05-01 11:11:00,
2013-05-01 07:21:00,60.4,-99.9,19.99,ENE,76,4.0,15.0,255,0.00,,,0.00,0,Wunderground v.1.15,2013-05-01 11:21:00,
2013-05-01 07:31:00,60.6,-99.9,19.99,ENE,61,6.0,15.0,255,0.00,,,0.00,0,Wunderground v.1.15,2013-05-01 11:31:00,
2013-05-01 07:41:00,60.8,-99.9,19.99,ENE,58,7.0,15.0,255,0.00,,,0.00,0,Wunderground v.1.15,2013-05-01 11:41:00,
2013-05-01 07:51:00,61.0,-99.9,19.98,East,88,3.0,15.0,255,0.00,,,0.00,0,Wunderground v.1.15,2013-05-01 11:51:00,
2013-05-01 08:00:00,61.1,-99.9,19.99,ESE,114,8.0,12.0,255,0.00,,,0.00,0,Wunderground v.1.15,2013-05-01 12:00:00,
2013-05-01 08:10:00,61.3,-99.9,19.99,NE,38,7.0,12.0,255,0.00,,,0.00,0,Wunderground v.1.15,2013-05-01 12:10:00,
2013-05-01 08:20:00,61.4,-99.9,19.99,ENE,57,5.0,12.0,255,0.00,,,0.00,0,Wunderground v.1.15,2013-05-01 12:20:00,
2013-05-01 08:30:00,61.4,-99.9,19.98,East,84,5.0,12.0,255,0.00,,,0.00,0,Wunderground v.1.15,2013-05-01 12:30:00,
2013-05-01 08:40:00,61.5,-99.9,19.98,NE,45,5.0,12.0,255,0.00,,,0.00,0,Wunderground v.1.15,2013-05-01 12:40:00,
2013-05-01 08:50:00,61.4,-99.9,19.98,NE,47,6.0,12.0,255,0.00,,,0.00,0,Wunderground v.1.15,2013-05-01 12:50:00,
2013-05-01 09:00:00,61.4,-99.9,19.99,East,82,5.0,14.0,255,0.00,,,0.00,0,Wunderground v.1.15,2013-05-01 13:00:00,
2013-05-01 09:10:00,61.4,-99.9,19.98,NE,54,6.0,14.0,255,0.00,,,0.00,0,Wunderground v.1.15,2013-05-01 13:10:00,
2013-05-01 09:20:00,61.6,-99.9,19.99,East,79,9.0,14.0,255,0.00,,,0.00,0,Wunderground v.1.15,2013-05-01 13:20:00,
2013-05-01 09:30:00,61.9,-99.9,19.99,East,79,6.0,14.0,255,0.00,,,0.00,0,Wunderground v.1.15,2013-05-01 13:30:00,
2013-05-01 09:40:00,62.5,-99.9,19.99,NE,42,12.0,14.0,255,0.00,,,0.00,0,Wunderground v.1.15,2013-05-01 13:40:00,
2013-05-01 09:50:00,62.5,-99.9,19.98,ENE,59,6.0,14.0,255,0.00,,,0.00,0,Wunderground v.1.15,2013-05-01 13:50:00,
2013-05-01 10:01:00,62.6,-99.9,19.99,NE,41,8.0,17.0,255,0.00,,,0.00,0,Wunderground v.1.15,2013-05-01 14:01:00,
2013-05-01 10:06:00,62.6,-99.9,19.99,ENE,62,5.0,17.0,255,0.00,,,0.00,0,Wunderground v.1.15,2013-05-01 14:06:00,
2013-05-01 10:16:00,62.1,-99.9,19.99,ENE,70,8.0,17.0,255,0.00,,,0.00,0,Wunderground v.1.15,2013-05-01 14:16:00,
2013-05-01 10:25:00,62.7,-99.9,19.99,ENE,73,7.0,17.0,255,0.00,,,0.00,0,Wunderground v.1.15,2013-05-01 14:25:00,
2013-05-01 10:31:00,62.6,-99.9,19.99,NNE,22,6.0,17.0,255,0.00,,,0.00,0,Wunderground v.1.15,2013-05-01 14:31:00,
2013-05-01 10:40:00,62.2,-99.9,19.99,NE,34,5.0,17.0,255,0.00,,,0.00,0,Wunderground v.1.15,2013-05-01 14:40:00,
2013-05-01 10:51:00,61.6,-99.9,19.99,ENE,67,7.0,17.0,255,0.00,,,0.00,0,Wunderground v.1.15,2013-05-01 14:51:00,
2013-05-01 11:00:00,62.1,-99.9,19.98,NNE,23,9.0,16.0,255,0.00,,,0.00,0,Wunderground v.1.15,2013-05-01 15:00:00,
2013-05-01 11:06:00,61.8,-99.9,19.98,ENE,66,7.0,16.0,255,0.00,,,0.00,0,Wunderground v.1.15,2013-05-01 15:06:00,
2013-05-01 11:15:00,61.7,-99.9,19.99,ENE,57,7.0,16.0,255,0.00,,,0.00,0,Wunderground v.1.15,2013-05-01 15:15:00,
2013-05-01 11:25:00,62.0,-99.9,19.98,North,1,3.0,16.0,255,0.00,,,0.00,0,Wunderground v.1.15,2013-05-01 15:25:00,
2013-05-01 11:30:00,62.6,-99.9,19.99,ENE,70,3.0,16.0,255,0.00,,,0.00,0,Wunderground v.1.15,2013-05-01 15:30:00,
2013-05-01 11:40:00,62.8,-99.9,19.99,NNE,32,10.0,16.0,255,0.00,,,0.00,0,Wunderground v.1.15,2013-05-01 15:40:00,
2013-05-01 11:50:00,63.3,-99.9,19.99,NE,49,4.0,16.0,255,0.00,,,0.00,0,Wunderground v.1.15,2013-05-01 15:50:00,
2013-05-01 12:00:00,63.8,-99.9,19.99,North,0,0.0,15.0,255,0.00,,,0.00,0,Wunderground v.1.15,2013-05-01 16:00:00,
2013-05-01 12:05:00,64.1,-99.9,19.98,NE,42,8.0,15.0,255,0.00,,,0.00,0,Wunderground v.1.15,2013-05-01 16:05:00,
2013-05-01 12:15:00,64.1,-99.9,19.99,NE,43,10.0,15.0,255,0.00,,,0.00,0,Wunderground v.1.15,2013-05-01 16:15:00,
2013-05-01 12:25:00,65.0,-99.9,19.98,NNE,25,6.0,15.0,255,0.00,,,0.00,0,Wunderground v.1.15,2013-05-01 16:25:00,
2013-05-01 12:30:00,65.0,-99.9,19.99,NNE,25,9.0,15.0,255,0.00,,,0.00,0,Wunderground v.1.15,2013-05-01 16:30:00,
2013-05-01 12:40:00,65.6,-99.9,19.99,East,83,8.0,15.0,255,0.00,,,0.00,0,Wunderground v.1.15,2013-05-01 16:40:00,
2013-05-01 12:50:00,66.6,-99.9,19.98,NE,38,9.0,15.0,255,0.00,,,0.00,0,Wunderground v.1.15,2013-05-01 16:50:00,
2013-05-01 13:01:00,66.4,-99.9,19.99,ENE,63,4.0,15.0,255,0.00,,,0.00,0,Wunderground v.1.15,2013-05-01 17:01:00,
2013-05-01 13:11:00,67.5,-99.9,19.99,NNE,18,3.0,15.0,255,0.00,,,0.00,0,Wunderground v.1.15,2013-05-01 17:11:00,
2013-05-01 13:21:00,67.1,-99.9,19.99,ESE,123,11.0,15.0,255,0.00,,,0.00,0,Wunderground v.1.15,2013-05-01 17:21:00,
2013-05-01 13:31:00,69.0,-99.9,19.99,NE,40,6.0,15.0,255,0.00,,,0.00,0,Wunderground v.1.15,2013-05-01 17:31:00,
2013-05-01 13:40:00,69.6,-99.9,19.99,NE,51,2.0,15.0,255,0.00,,,0.00,0,Wunderground v.1.15,2013-05-01 17:40:00,
2013-05-01 13:51:00,69.5,-99.9,19.99,NE,47,8.0,15.0,255,0.00,,,0.00,0,Wunderground v.1.15,2013-05-01 17:51:00,
2013-05-01 14:00:00,69.8,-99.9,19.99,North,9,4.0,13.0,255,0.00,,,0.00,0,Wunderground v.1.15,2013-05-01 18:00:00,
2013-05-01 14:05:00,69.8,-99.9,19.99,NNE,25,4.0,13.0,255,0.00,,,0.00,0,Wunderground v.1.15,2013-05-01 18:05:00,
2013-05-01 14:15:00,70.2,-99.9,19.99,NE,49,2.0,13.0,255,0.00,,,0.00,0,Wunderground v.1.15,2013-05-01 18:15:00,
2013-05-01 14:25:00,70.8,-99.9,19.99,NE,38,4.0,13.0,255,0.00,,,0.00,0,Wunderground v.1.15,2013-05-01 18:25:00,
2013-05-01 14:35:00,70.8,-99.9,19.99,NE,51,8.0,13.0,255,0.00,,,0.00,0,Wunderground v.1.15,2013-05-01 18:35:00,
2013-05-01 14:45:00,70.7,-99.9,19.99,East,94,3.0,13.0,255,0.00,,,0.00,0,Wunderground v.1.15,2013-05-01 18:45:00,
2013-05-01 15:00:00,71.8,-99.9,19.99,East,101,4.0,14.0,255,0.00,,,0.00,0,Wunderground v.1.15,2013-05-01 19:00:00,
2013-05-01 15:10:00,72.7,-99.9,19.98,NE,34,10.0,14.0,255,0.00,,,0.00,0,Wunderground v.1.15,2013-05-01 19:10:00,
2013-05-01 15:20:00,71.8,-99.9,19.99,ENE,71,7.0,14.0,255,0.00,,,0.00,0,Wunderground v.1.15,2013-05-01 19:20:00,
2013-05-01 15:30:00,73.1,-99.9,19.99,NE,37,10.0,14.0,255,0.00,,,0.00,0,Wunderground v.1.15,2013-05-01 19:30:00,
2013-05-01 15:40:00,73.2,-99.9,19.99,NE,48,5.0,14.0,255,0.00,,,0.00,0,Wunderground v.1.15,2013-05-01 19:40:00,
2013-05-01 15:45:00,73.7,-99.9,19.99,NE,42,1.0,14.0,255,0.00,,,0.00,0,Wunderground v.1.15,2013-05-01 19:45:00,
2013-05-01 15:51:00,72.5,-99.9,19.99,NE,44,4.0,14.0,255,0.00,,,0.00,0,Wunderground v.1.15,2013-05-01 19:51:00,
2013-05-01 16:01:00,72.5,-99.9,19.99,NE,40,4.0,12.0,255,0.00,,,0.00,0,Wunderground v.1.15,2013-05-01 20:01:00,
2013-05-01 16:11:00,73.6,-99.9,19.99,ENE,75,3.0,12.0,255,0.00,,,0.00,0,Wunderground v.1.15,2013-05-01 20:11:00,
2013-05-01 16:21:00,70.0,-99.9,19.98,SE,130,12.0,12.0,255,0.00,,,0.00,0,Wunderground v.1.15,2013-05-01 20:21:00,
2013-05-01 16:31:00,69.9,-99.9,19.98,SE,139,5.0,12.0,255,0.00,,,0.00,0,Wunderground v.1.15,2013-05-01 20:31:00,
2013-05-01 16:41:00,70.6,-99.9,19.99,ESE,108,5.0,12.0,255,0.00,,,0.00,0,Wunderground v.1.15,2013-05-01 20:41:00,
2013-05-01 16:50:00,70.0,-99.9,19.99,ESE,119,18.0,18.0,255,0.00,,,0.00,0,Wunderground v.1.15,2013-05-01 20:50:00,
2013-05-01 17:00:00,70.5,-99.9,19.99,SE,126,10.0,22.0,255,0.00,,,0.00,0,Wunderground v.1.15,2013-05-01 21:00:00,
2013-05-01 17:10:00,71.3,-99.9,19.99,East,90,6.0,22.0,255,0.00,,,0.00,0,Wunderground v.1.15,2013-05-01 21:10:00,
2013-05-01 17:20:00,72.7,-99.9,19.99,NE,40,6.0,22.0,255,0.00,,,0.00,0,Wunderground v.1.15,2013-05-01 21:20:00,
2013-05-01 17:30:00,71.9,-99.9,19.98,ENE,62,13.0,22.0,255,0.00,,,0.00,0,Wunderground v.1.15,2013-05-01 21:30:00,
2013-05-01 17:40:00,70.6,-99.9,19.98,ESE,111,6.0,22.0,255,0.00,,,0.00,0,Wunderground v.1.15,2013-05-01 21:40:00,
2013-05-01 17:50:00,70.7,-99.9,19.99,East,85,6.0,22.0,255,0.00,,,0.00,0,Wunderground v.1.15,2013-05-01 21:50:00,
2013-05-01 18:00:00,70.2,-99.9,19.99,ESE,121,6.0,20.0,255,0.00,,,0.00,0,Wunderground v.1.15,2013-05-01 22:00:00,
2013-05-01 18:10:00,70.1,-99.9,19.99,ENE,59,9.0,20.0,255,0.00,,,0.00,0,Wunderground v.1.15,2013-05-01 22:10:00,
2013-05-01 18:20:00,69.9,-99.9,19.99,East,98,0.0,20.0,255,0.00,,,0.00,0,Wunderground v.1.15,2013-05-01 22:20:00,
2013-05-01 18:30:00,70.0,-99.9,19.99,ESE,115,8.0,20.0,255,0.00,,,0.00,0,Wunderground v.1.15,2013-05-01 22:30:00,
2013-05-01 18:40:00,69.6,-99.9,19.98,East,90,4.0,20.0,255,0.00,,,0.00,0,Wunderground v.1.15,2013-05-01 22:40:00,
2013-05-01 18:51:00,69.3,-99.9,19.99,ESE,117,5.0,20.0,255,0.00,,,0.00,0,Wunderground v.1.15,2013-05-01 22:51:00,
2013-05-01 19:01:00,69.3,-99.9,19.98,ENE,78,7.0,18.0,255,0.00,,,0.00,0,Wunderground v.1.15,2013-05-01 23:01:00,
2013-05-01 19:11:00,69.1,-99.9,19.99,East,99,6.0,18.0,255,0.00,,,0.00,0,Wunderground v.1.15,2013-05-01 23:11:00,
2013-05-01 19:21:00,69.0,-99.9,19.99,East,83,3.0,18.0,255,0.00,,,0.00,0,Wunderground v.1.15,2013-05-01 23:21:00,
2013-05-01 19:31:00,68.8,-99.9,19.99,ENE,78,3.0,18.0,255,0.00,,,0.00,0,Wunderground v.1.15,2013-05-01 23:31:00,
2013-05-01 19:41:00,68.7,-99.9,19.99,SE,124,5.0,18.0,255,0.00,,,0.00,0,Wunderground v.1.15,2013-05-01 23:41:00,
2013-05-01 19:50:00,68.5,-99.9,19.99,East,91,10.0,18.0,255,0.00,,,0.00,0,Wunderground v.1.15,2013-05-01 23:50:00,
2013-05-01 20:00:00,68.3,-99.9,19.99,East,92,5.0,16.0,255,0.00,,,0.00,0,Wunderground v.1.15,2013-05-02 00:00:00,
2013-05-01 20:10:00,67.2,-99.9,19.99,East,89,2.0,16.0,255,0.00,,,0.00,0,Wunderground v.1.15,2013-05-02 00:10:00,
2013-05-01 20:15:00,66.5,-99.9,19.99,ENE,69,3.0,16.0,255,0.00,,,0.00,0,Wunderground v.1.15,2013-05-02 00:15:00,
2013-05-01 20:25:00,66.5,-99.9,19.98,NNE,24,5.0,16.0,255,0.00,,,0.00,0,Wunderground v.1.15,2013-05-02 00:25:00,
2013-05-01 20:35:00,66.8,-99.9,19.99,ENE,58,8.0,16.0,255,0.00,,,0.00,0,Wunderground v.1.15,2013-05-02 00:35:00,
2013-05-01 20:45:00,67.0,-99.9,19.99,SE,126,7.0,16.0,255,0.00,,,0.00,0,Wunderground v.1.15,2013-05-02 00:45:00,
2013-05-01 21:00:00,66.8,-99.9,19.98,ENE,67,6.0,17.0,255,0.00,,,0.00,0,Wunderground v.1.15,2013-05-02 01:00:00,
2013-05-01 21:10:00,66.5,-99.9,19.98,ENE,57,5.0,17.0,255,0.00,,,0.00,0,Wunderground v.1.15,2013-05-02 01:10:00,
2013-05-01 21:15:00,66.3,-99.9,19.98,NNE,31,6.0,17.0,255,0.00,,,0.00,0,Wunderground v.1.15,2013-05-02 01:15:00,
2013-05-01 21:25:00,66.3,-99.9,19.99,NE,43,5.0,17.0,255,0.00,,,0.00,0,Wunderground v.1.15,2013-05-02 01:25:00,
2013-05-01 21:35:00,66.3,-99.9,19.99,NE,46,8.0,17.0,255,0.00,,,0.00,0,Wunderground v.1.15,2013-05-02 01:35:00,
2013-05-01 21:40:00,66.3,-99.9,19.99,NE,51,2.0,17.0,255,0.00,,,0.00,0,Wunderground v.1.15,2013-05-02 01:40:00,
2013-05-01 21:51:00,66.4,-99.9,19.99,East,80,3.0,17.0,255,0.00,,,0.00,0,Wunderground v.1.15,2013-05-02 01:51:00,
2013-05-01 22:01:00,66.5,-99.9,19.99,ENE,61,11.0,17.0,255,0.00,,,0.00,0,Wunderground v.1.15,2013-05-02 02:01:00,
2013-05-01 22:11:00,66.5,-99.9,19.99,NE,44,6.0,17.0,255,0.00,,,0.00,0,Wunderground v.1.15,2013-05-02 02:11:00,
2013-05-01 22:21:00,66.5,-99.9,19.99,NE,52,5.0,17.0,255,0.00,,,0.00,0,Wunderground v.1.15,2013-05-02 02:21:00,
2013-05-01 22:31:00,66.3,-99.9,19.99,NNE,28,3.0,17.0,255,0.00,,,0.00,0,Wunderground v.1.15,2013-05-02 02:31:00,
2013-05-01 22:41:00,66.4,-99.9,19.99,ESE,109,2.0,17.0,255,0.00,,,0.00,0,Wunderground v.1.15,2013-05-02 02:41:00,
2013-05-01 22:50:00,66.5,-99.9,19.99,East,92,12.0,17.0,255,0.00,,,0.00,0,Wunderground v.1.15,2013-05-02 02:50:00,
2013-05-01 23:00:00,66.5,-99.9,19.99,East,81,7.0,14.0,255,0.00,,,0.00,0,Wunderground v.1.15,2013-05-02 03:00:00,
2013-05-01 23:10:00,66.6,-99.9,19.98,NE,56,9.0,14.0,255,0.00,,,0.00,0,Wunderground v.1.15,2013-05-02 03:10:00,
2013-05-01 23:20:00,67.0,-99.9,19.99,East,86,5.0,14.0,255,0.00,,,0.00,0,Wunderground v.1.15,2013-05-02 03:20:00,
2013-05-01 23:30:00,66.9,-99.9,19.99,NE,45,5.0,14.0,255,0.00,,,0.00,0,Wunderground v.1.15,2013-05-02 03:30:00,
2013-05-01 23:35:00,66.9,-99.9,19.99,ENE,65,7.0,14.0,255,0.00,,,0.00,0,Wunderground v.1.15,2013-05-02 03:35:00,
2013-05-01 23:45:00,67.0,-99.9,19.99,NNE,18,4.0,14.0,255,0.00,,,0.00,0,Wunderground v.1.15,2013-05-02 03:45:00,